User: anonymous   Login
Location: Unspecified
(0.0000°N, 0.0000°E)
Time: 11:00:18
(UTC+02:00)
Language:

NOAA 12 - Orbit

View from above orbital plane
View from above orbital plane
View from above satellite
View from above satellite

Ground track
Ground track

The orbit data is extracted from the following two-line orbital elements,

1 21263U 91032A   16120.54800705 -.00000017  00000-0  11183-4 0  9995
2 21263  98.5994 147.1250 0014623  52.4158 307.8348 14.25809241297783
Epoch (UTC): 29 April 2016 13:09:07
Eccentricity: 0.0014623
inclination: 98.5994°
perigee height: 795 km
apogee height: 816 km
right ascension of ascending node: 147.1250°
argument of perigee: 52.4158°
revolutions per day: 14.25809241
mean anomaly at epoch: 307.8348°
orbit number at epoch: 29778

The dashed part of the orbit path shows where the satellite is in the earth's shadow,  

DLR